Lexington Weather

Lexington, Massachusetts, USA

37°F
1/27/2020 8:45am 
  • Lexington Conditions: Mostly cloudy
  • Temperature: 36.9°F / 2.7°CWarmer 0.6°F than last hour.
  • Dew Point: 31.8°FIncreased 0.5°Fsince last hour.
  • Relative Humidity: 82
  • Wind: Wind from SSW SSW 2 mph, 10-min avg: 2 mph, gust: 6 mph
  • Barometer: 29.57 in Steady
  • Visibility: 10 miles
  • Rain Today: 0.00 in
  •   

Regional Weather Roundup
for Boston / Norton, MA

        
000
ASUS41 KBOX 261910
RWRBOX

REGIONAL WEATHER ROUNDUP
NATIONAL WEATHER SERVICE BOSTON/NORTON MA
200 PM EST SUN JAN 26 2020

NOTE:  "FAIR" INDICATES FEW OR NO CLOUDS BELOW 12,000 FEET WITH NO 
SIGNIFICANT WEATHER AND/OR OBSTRUCTIONS TO VISIBILITY.

MAZALL-262000-
EASTERN MASSACHUSETTS
  
CITY           SKY/WX    TMP DP  RH WIND       PRES   REMARKS
BOSTON         FAIR      50  29  44 W22G30    29.63F                  
BEVERLY        CLOUDY    49  31  49 W15G24    29.61F                  
LAWRENCE       CLOUDY    46  30  53 W13G18    29.63F                  
BEDFORD        PTSUNNY   48  28  46 W17G23    29.63F                  
BLUE HILL        N/A     46  29  51 W20G30    29.61F                  
NORWOOD        FAIR      51  29  42 W18       29.64F                  
MARSHFIELD     FAIR      50  30  46 W13G21    29.63F                  
PLYMOUTH       FAIR      49  30  48 W15       29.64F                  
TAUNTON        CLOUDY    47  28  47 W10G17    29.65F                  
NEW BEDFORD    PTSUNNY   47  30  51 W9        29.65F                  
$$

MAZALL-262000-
CAPE COD AND THE ISLANDS
  
CITY           SKY/WX    TMP DP  RH WIND       PRES   REMARKS
FALMOUTH       SUNNY     45  36  70 W20G26    29.66F                  
HYANNIS        FAIR      47  36  65 SW16      29.64F                  
CHATHAM        FAIR      45  36  70 SW10G18   29.66F                  
PROVINCETOWN   FAIR      48  35  60 SW12      29.64F                  
NANTUCKET      FAIR      46  37  71 W17       29.68F                  
MARTHAS VNYRD  FAIR      46  34  62 W10G22    29.68F                  
$$
 
MAZALL-262000-
CENTRAL AND WESTERN MASSACHUSETTS
  
CITY           SKY/WX    TMP DP  RH WIND       PRES   REMARKS
WORCESTER      LGT RAIN  38  31  76 W18G25    29.64S WCI  28          
FITCHBURG      LGT RAIN  43  32  65 W10G17    29.65S                  
ORANGE         FAIR      41  29  62 W13G22    29.67R                  
SPRINGFIELD    PTSUNNY   42  31  64 W14       29.67F                  
WESTFIELD      FAIR      42  32  67 NW10      29.68F                  
NORTH ADAMS    NOT AVBL                                               
PITTSFIELD     FAIR      37  29  72 W9        29.65F WCI  30          
$$
 
RIZALL-262000-
RHODE ISLAND
  
CITY           SKY/WX    TMP DP  RH WIND       PRES   REMARKS
PROVIDENCE     PTSUNNY   47  31  53 NW13      29.66F                  
NEWPORT        CLOUDY    45  35  68 VRB6      29.66F                  
BLOCK ISLAND   FAIR      44  35  70 W15G21    29.71F                  
SMITHFIELD     CLOUDY    44  31  60 W9        29.65F                  
WESTERLY       FAIR      46  35  65 W14G25    29.70F                  
$$
 
CTZALL-262000-
CONNECTICUT
  
CITY           SKY/WX    TMP DP  RH WIND       PRES   REMARKS
BRADLEY INTL   PTSUNNY   43  30  60 NW9       29.68F                  
HARTFORD       FAIR      48  31  51 W9        29.69F                  
BRIDGEPORT     FAIR      47  30  51 W10       29.72F                  
DANBURY        CLOUDY    42  27  55 W12       29.72F                  
GROTON         FAIR      44  35  70 W16       29.69F                  
NEW HAVEN      FAIR      47  30  51 VRB7      29.71F                  
CHESTER        NOT AVBL                                               
MERIDEN        FAIR      44  28  53 W8G17     29.70F                  
WILLIMANTIC    CLOUDY    45  30  55 W7        29.68F                  
OXFORD         PTSUNNY   41  27  57 VRB6      29.70F                  
$$

MEZ002-015-021-024-NHZ003-005-008-011-012-014-VTZ005-008-262000-
NORTHERN NEW ENGLAND
  
CITY           SKY/WX    TMP DP  RH WIND       PRES   REMARKS
PORTLAND ME    FAIR      47  33  58 W14       29.56F                  
BANGOR ME      LGT RAIN  40  40 100 W7        29.49S FOG              
CONCORD NH     FAIR      45  27  49 W17G25    29.60F                  
MANCHESTER NH  PTSUNNY   47  27  45 W10G17    29.60F                  
NASHUA NH      PTSUNNY   46  29  51 W12G22    29.63F                  
PORTSMOUTH NH  MOSUNNY   47  30  52 W10       29.58F                  
JAFFREY NH     PTSUNNY   40  28  62 W8G20     29.62S                  
KEENE NH       CLOUDY    42  29  59 VRB7G18   29.64F                  
BURLINGTON VT  LGT RAIN  38  34  85 S5        29.60F                  
MT. WASHINGTON SNOW      18  18 100 W40         N/A  VSB 0   WCI  -4  
$$

NYZ052-076-262000-
EASTERN NEW YORK
  
CITY           SKY/WX    TMP DP  RH WIND       PRES   REMARKS
ALBANY         CLOUDY    41  30  65 W10       29.70F                  
NEW YORK CITY  PTSUNNY   45  25  45 W12G17    29.75F                  
$$
 
ANZALL-262000-
MARINE OBSERVATIONS
  
STATION/POSITION TIME  TEMP    WIND        PRES    VSBY  WAVE
                       AIR SEA DIR/SP/G                  HT/PER
                 (UTC) (F)     (DEG/KT/KT) (MB)    (MI)  (FT/S)
BOSTON BUOY      1850   45 43  260/ 12/ 14 1002.6F         5/ 9
BUZZARDS BAY     1800   41     250/ 23/ 25 1005.8F
NANTUCKET SOUND  1840                        N/A           1/ 9
MASS BAY-STELLWA 1804   43 41  280/ 10/ 14 1001.1F  1 7/8  6/ 8
ISLE OF SHOALS   1800   44     260/ 15/ 16 1001.9F
S OF BLOCK IS    1900      44                N/A           7/ 9
$$

......................KEY.........................
  SKY/WX - SKY CONDITION/PRESENT WEATHER
  TMP    - TEMPERATURE IN FAHRENHEIT
  DWPT   - DEWPOINT IN FAHRENHEIT
  RH     - RELATIVE HUMIDITY IN PERCENT
  WIND   - DIRECTION AND SPEED IN MPH
  PRES   - MEAN SEA LEVEL PRESSURE IN INCHES OF HG
  WCI    - WIND CHILL INDEX
  VSB    - VISIBILITY IN MILES
  HX     - HEAT INDEX
  TC     - TEMPERATURE IN CELSIUS
  VRB    - VARIABLE WIND DIRECTION
  N/A    - NOT AVAILABLE
  
      

Other recent Regional Weather Roundups

Mon Jan 27, 8:10am

Mon Jan 27, 8:00am

Mon Jan 27, 7:10am

Mon Jan 27, 7:00am

Mon Jan 27, 6:10am

Mon Jan 27, 6:00am

Mon Jan 27, 5:10am

Mon Jan 27, 5:00am

Mon Jan 27, 4:10am

Mon Jan 27, 4:01am

Mon Jan 27, 3:10am

Mon Jan 27, 3:00am

Mon Jan 27, 2:10am

Mon Jan 27, 2:00am

Mon Jan 27, 1:10am

Mon Jan 27, 1:00am

Mon Jan 27, 12:10am

Mon Jan 27, 12:00am

Sun Jan 26, 11:10pm

Sun Jan 26, 11:00pm

Sun Jan 26, 10:10pm

Sun Jan 26, 10:00pm

Sun Jan 26, 9:10pm

Sun Jan 26, 9:01pm

Sun Jan 26, 8:10pm

Sun Jan 26, 8:00pm

Sun Jan 26, 7:10pm

Sun Jan 26, 7:00pm

Sun Jan 26, 6:10pm

Sun Jan 26, 6:01pm

Sun Jan 26, 5:10pm

Sun Jan 26, 5:01pm

Sun Jan 26, 4:10pm

Sun Jan 26, 4:00pm

Sun Jan 26, 3:10pm

Sun Jan 26, 3:01pm

Sun Jan 26, 2:01pm

Sun Jan 26, 1:10pm

Sun Jan 26, 1:00pm

Sun Jan 26, 12:10pm

Sun Jan 26, 12:00pm

Sun Jan 26, 11:10am

Sun Jan 26, 11:01am

Sun Jan 26, 10:10am

Sun Jan 26, 10:01am

Sun Jan 26, 9:10am

Sun Jan 26, 9:00am

Sun Jan 26, 8:10am

Sun Jan 26, 8:00am

Sun Jan 26, 7:10am

Sun Jan 26, 7:00am

Sun Jan 26, 6:10am

Sun Jan 26, 6:00am

Sun Jan 26, 5:10am

Sun Jan 26, 5:00am

Sun Jan 26, 4:10am

Sun Jan 26, 4:01am

Sun Jan 26, 3:10am

Sun Jan 26, 3:01am

Sun Jan 26, 2:10am

Sun Jan 26, 2:00am

Sun Jan 26, 1:10am

Sun Jan 26, 1:00am

Sun Jan 26, 12:10am

Sun Jan 26, 12:00am

Sat Jan 25, 11:10pm

Sat Jan 25, 11:00pm

Sat Jan 25, 10:10pm

Sat Jan 25, 10:01pm

Sat Jan 25, 9:10pm

Sat Jan 25, 9:01pm

Sat Jan 25, 8:10pm

Sat Jan 25, 8:01pm

Sat Jan 25, 7:10pm

Sat Jan 25, 7:01pm

Sat Jan 25, 6:10pm

Sat Jan 25, 6:01pm

Sat Jan 25, 5:10pm

Sat Jan 25, 5:01pm

Sat Jan 25, 4:10pm

Sat Jan 25, 4:00pm

Sat Jan 25, 3:10pm

Sat Jan 25, 3:01pm

Sat Jan 25, 2:10pm

Sat Jan 25, 2:00pm

Sat Jan 25, 1:10pm

Sat Jan 25, 1:00pm

Sat Jan 25, 12:10pm

Sat Jan 25, 12:00pm

Sat Jan 25, 11:10am

Sat Jan 25, 11:00am

Sat Jan 25, 10:10am

Sat Jan 25, 10:00am

Sat Jan 25, 9:10am

Sat Jan 25, 9:00am

Sat Jan 25, 8:10am

Sat Jan 25, 8:01am

Sat Jan 25, 7:10am

Sat Jan 25, 7:00am

Sat Jan 25, 6:10am

Sat Jan 25, 6:00am

Sat Jan 25, 5:10am

Sat Jan 25, 5:00am

Sat Jan 25, 4:10am

Sat Jan 25, 4:00am

Sat Jan 25, 3:10am

Sat Jan 25, 3:00am

Sat Jan 25, 2:10am

Sat Jan 25, 2:01am

Sat Jan 25, 1:10am

Sat Jan 25, 1:00am

Sat Jan 25, 12:10am

Sat Jan 25, 12:00am

Fri Jan 24, 11:10pm

Fri Jan 24, 11:00pm

Fri Jan 24, 10:10pm

Fri Jan 24, 10:00pm

Fri Jan 24, 9:10pm

Fri Jan 24, 9:00pm

Fri Jan 24, 8:10pm

Fri Jan 24, 8:01pm

Fri Jan 24, 7:10pm

Fri Jan 24, 7:00pm

Fri Jan 24, 6:10pm

Fri Jan 24, 6:01pm

Fri Jan 24, 5:10pm

Fri Jan 24, 5:01pm

Fri Jan 24, 4:10pm

Fri Jan 24, 4:00pm

Fri Jan 24, 3:10pm

Fri Jan 24, 3:00pm

Fri Jan 24, 2:10pm

Fri Jan 24, 2:01pm

Fri Jan 24, 1:10pm

Fri Jan 24, 1:00pm

Fri Jan 24, 12:10pm

Fri Jan 24, 12:01pm

Fri Jan 24, 11:10am

Fri Jan 24, 11:01am

Fri Jan 24, 10:10am

Fri Jan 24, 10:00am

Fri Jan 24, 9:10am

Fri Jan 24, 9:00am

Meta data:

ID: d3e109ed-c612-412e-a18a-e17b67904f35
Link: https://api.weather.gov/products/d3e109ed-c612-412e-a18a-e17b67904f35